Location: Cahoon Acres
(40.8736°N, 111.8994°W)
Time: 08:02:54
(UTC+00:00)

Altair - Visible Passes

Search period start: 26 May 2020 00:00
Search period end: 05 June 2020 00:00
Orbit: 1501 x 1683 km, 47.2° (Epoch: 25 May)

Date Brightness Start Highest point End Pass type
(mag) Time Alt. Az. Time Alt. Az. Time Alt. Az.
26 May 8.2 04:46:30 21° SSE 04:50:42 28° SE 04:58:45 10° ENE visible
26 May 7.5 06:44:28 10° SW 06:54:29 78° SSE 07:04:40 10° ENE visible
26 May 8.0 08:49:48 10° W 08:59:53 64° N 09:09:58 10° ENE visible
26 May 8.1 10:55:44 10° WNW 11:05:56 68° NNE 11:15:56 10° E visible
27 May 8.3 04:18:07 10° S 04:25:38 25° SE 04:33:17 10° ENE visible
27 May 7.5 06:19:20 10° SW 06:29:17 74° SE 06:39:26 10° ENE visible
27 May 8.0 08:24:30 10° W 08:34:35 65° NNW 08:44:42 10° ENE visible
27 May 8.1 10:30:28 10° WNW 10:40:38 67° NNE 10:50:39 10° E visible
28 May 8.4 03:53:29 10° S 04:00:35 23° SE 04:07:47 10° E visible
28 May 7.5 05:54:13 10° SW 06:04:05 70° SE 06:14:11 10° ENE visible
28 May 7.9 07:59:13 10° W 08:09:17 67° NNW 08:19:26 10° ENE visible
28 May 8.1 10:05:12 10° WNW 10:15:21 65° NNE 10:25:22 10° E visible
29 May 8.5 03:28:57 10° SSE 03:35:32 20° SE 03:42:12 10° E visible
29 May 7.5 05:29:08 10° SW 05:38:55 66° SE 05:48:56 10° ENE visible
29 May 7.9 07:33:56 10° W 07:44:00 68° NNW 07:54:11 10° ENE visible
29 May 8.1 09:39:55 10° WNW 09:50:03 64° N 10:00:05 10° E visible
30 May 7.6 05:04:04 10° SW 05:13:45 61° SE 05:23:41 10° ENE visible
30 May 7.8 07:08:40 10° W 07:18:43 70° NNW 07:28:55 10° ENE visible
30 May 8.1 09:14:39 10° WNW 09:24:45 63° N 09:34:47 10° E visible
30 May 7.7 11:20:01 10° WNW 11:30:14 82° SSW 11:40:13 10° SE visible
31 May 7.6 04:39:02 10° SW 04:48:36 57° SE 04:58:25 10° ENE visible
31 May 7.8 06:43:24 10° WSW 06:53:26 72° NNW 07:03:39 10° ENE visible
31 May 8.1 08:49:22 10° WNW 08:59:26 62° N 09:09:29 10° E visible
31 May 7.7 10:54:46 10° WNW 11:05:01 86° SSW 11:15:04 10° ESE visible
01 Jun 7.7 04:14:02 10° SSW 04:23:27 53° SE 04:33:09 10° ENE visible
01 Jun 7.8 06:18:09 10° WSW 06:28:10 75° NNW 06:38:24 10° ENE visible
01 Jun 8.1 08:24:05 10° WNW 08:34:08 62° N 08:44:11 10° E visible
01 Jun 7.7 10:29:32 10° WNW 10:39:47 90° SSW 10:49:52 10° ESE visible
02 Jun 7.7 03:49:03 10° SSW 03:58:19 49° SE 04:07:53 10° ENE visible
02 Jun 7.7 05:52:54 10° WSW 06:02:55 77° NNW 06:13:09 10° ENE visible
02 Jun 8.1 07:58:47 10° WNW 08:08:49 61° N 08:18:53 10° E visible
02 Jun 7.7 10:04:18 10° WNW 10:14:33 87° NNE 10:24:40 10° ESE visible
03 Jun 7.8 03:24:06 10° SSW 03:33:11 46° SE 03:42:34 10° ENE visible
03 Jun 7.7 05:27:41 10° WSW 05:37:39 80° NNW 05:47:54 10° ENE visible
03 Jun 8.1 07:33:31 10° W 07:43:30 61° N 07:53:35 10° E visible
03 Jun 7.7 09:39:03 10° WNW 09:49:19 83° NNE 09:59:27 10° ESE visible
04 Jun 7.7 05:02:28 10° WSW 05:12:24 84° NNW 05:22:39 10° ENE visible
04 Jun 8.1 07:08:14 10° W 07:18:12 61° N 07:28:16 10° E visible
04 Jun 7.7 09:13:49 10° WNW 09:24:04 80° NNE 09:34:13 10° ESE visible
04 Jun 7.9 11:19:05 10° WNW 11:28:35 46° SW 11:37:55 10° SSE visible
